Weather History for KSFM - February, 2014

Change the Weather History Date:

Wednesday, February 5, 2014

  Actual Average Record
Temperature  
Mean Temperature 22 °F -  
Max Temperature 26 °F 31 °F 53 °F (2006)
Min Temperature 15 °F 11 °F -16 °F (2009)
Degree Days  
Heating Degree Days 44    
Moisture  
Dew Point 15 °F    
Average Humidity 75    
Maximum Humidity 100    
Minimum Humidity 47    
Precipitation  
Precipitation 0.00 in - - ()
Sea Level Pressure  
Sea Level Pressure 29.98 in    
Wind  
Wind Speed 9 mph (NNE)    
Max Wind Speed 20 mph    
Max Gust Speed 28 mph    
Visibility 5 miles    
Events      
Averages and records for this station are not official NWS values.
T = Trace of Precipitation, MM = Missing Value Source: NWS Daily Summary

Daily Weather History Graph

Daily Weather History Graph

Search for Another Location

Airport or City:

Trip Planner

Search our weather history database for the weather conditions in past years. The results will help you decide how hot, cold, wet, or windy it might be!

Date:

Astronomy

Feb. 05, 2014 Rise Set
Actual Time 6:54 AM EST 5:00 PM EST
Civil Twilight 6:24 AM EST 5:30 PM EST
Nautical Twilight 5:50 AM EST 6:04 PM EST
Astronomical Twilight 5:16 AM EST 6:37 PM EST
Moon 9:54 AM EST (2/5) No Moon Set
Length of Visible Light 11h 05m
Length of Day
10h 05m
Waxing Crescent, 39% of the Moon is Illuminated
Feb 5
Waxing Crescent
Feb 6
First Quarter
Feb 14
Full
Feb 22
Last Quarter
Mar 1
New

Hourly Weather History & Observations

Time (EST) Temp. Windchill Dew Point Humidity Pressure Visibility Wind Dir Wind Speed Gust Speed Precip Events Conditions
12:15 AM 26.6 °F - 19.4 °F 74% 30.33 in 10.0 mi Calm Calm - N/A   Overcast
12:35 AM 26.6 °F 22.6 °F 19.4 °F 74% 30.30 in 10.0 mi NE 3.5 mph - N/A   Mostly Cloudy
12:55 AM 26.6 °F - 17.6 °F 69% 30.28 in 10.0 mi Calm Calm - N/A   Mostly Cloudy
1:15 AM 26.6 °F 21.2 °F 19.4 °F 74% 30.26 in 10.0 mi North 4.6 mph - N/A   Overcast
1:35 AM 26.6 °F 19.1 °F 21.2 °F 80% 30.25 in 10.0 mi NNE 6.9 mph - N/A   Overcast
1:55 AM 26.6 °F - 10.4 °F 51% 30.26 in 10.0 mi Calm Calm - N/A   Overcast
2:15 AM 26.6 °F 20.0 °F 14.0 °F 59% 30.28 in 10.0 mi NNE 5.8 mph - N/A   Overcast
2:35 AM 26.6 °F 21.2 °F 21.2 °F 80% 30.27 in 10.0 mi NNE 4.6 mph - N/A   Scattered Clouds
2:55 AM 26.6 °F 19.1 °F 14.0 °F 59% 30.27 in 10.0 mi NNE 6.9 mph - N/A   Clear
3:15 AM 26.6 °F 20.0 °F 12.2 °F 55% 30.25 in 10.0 mi NE 5.8 mph - N/A   Scattered Clouds
3:35 AM 26.6 °F 19.1 °F 24.8 °F 93% 30.26 in 10.0 mi North 6.9 mph - N/A   Mostly Cloudy
3:55 AM 26.6 °F 20.0 °F 15.8 °F 64% 30.27 in 10.0 mi North 5.8 mph - N/A   Mostly Cloudy
4:15 AM 26.6 °F 18.2 °F 8.6 °F 47% 30.25 in 10.0 mi NNE 8.1 mph - N/A   Overcast
4:35 AM 24.8 °F 19.1 °F 17.6 °F 74% 30.24 in 10.0 mi NNE 4.6 mph - N/A   Overcast
4:55 AM 24.8 °F 14.6 °F 19.4 °F 80% 30.23 in 10.0 mi NNE 10.4 mph - N/A   Overcast
5:15 AM 24.8 °F 15.3 °F 10.4 °F 54% 30.21 in 10.0 mi NNE 9.2 mph - N/A   Overcast
5:35 AM 24.8 °F 15.3 °F 12.2 °F 59% 30.21 in 9.0 mi NNE 9.2 mph - N/A   Overcast
5:55 AM 23.0 °F 11.1 °F 17.6 °F 80% 30.19 in 1.8 mi NNE 12.7 mph - N/A   Overcast
6:15 AM 21.2 °F 10.9 °F 10.4 °F 63% 30.20 in 1.2 mi NNE 9.2 mph - N/A   Overcast
6:35 AM 21.2 °F 10.9 °F 21.2 °F 100% 30.19 in 0.8 mi NNE 9.2 mph - N/A   Overcast
6:55 AM 21.2 °F 10.1 °F 12.2 °F 68% 30.19 in 1.0 mi NNE 10.4 mph - N/A   Overcast
7:15 AM 21.2 °F 8.9 °F 15.8 °F 80% 30.18 in 0.8 mi NNE 12.7 mph - N/A   Overcast
7:35 AM 21.2 °F 8.9 °F 21.2 °F 100% 30.18 in 1.0 mi NNE 12.7 mph - N/A   Overcast
7:55 AM 21.2 °F 9.5 °F 6.8 °F 54% 30.17 in 0.8 mi NNE 11.5 mph - N/A   Overcast
8:15 AM 21.2 °F 9.5 °F 21.2 °F 100% 30.14 in 0.8 mi North 11.5 mph - N/A   Overcast
8:35 AM 21.2 °F 10.1 °F 12.2 °F 68% 30.15 in 0.8 mi North 10.4 mph - N/A   Overcast
8:55 AM 19.4 °F 7.2 °F 14.0 °F 80% 30.12 in 0.5 mi NNE 11.5 mph - N/A   Overcast
9:15 AM 21.2 °F 8.9 °F 19.4 °F 93% 30.11 in 0.8 mi North 12.7 mph - N/A   Overcast
9:35 AM 21.2 °F 6.8 °F 8.6 °F 58% 30.08 in 0.8 mi NNE 17.3 mph 25.3 mph N/A   Overcast
9:55 AM 21.2 °F 7.8 °F 21.2 °F 100% 30.07 in 0.5 mi North 15.0 mph - N/A   Overcast
10:15 AM 21.2 °F 7.8 °F 5.0 °F 50% 30.04 in 0.5 mi NNE 15.0 mph - N/A   Overcast
10:35 AM 21.2 °F 8.3 °F 21.2 °F 100% 30.01 in 0.5 mi NNE 13.8 mph - N/A   Overcast
10:55 AM 21.2 °F 7.8 °F 6.8 °F 54% 30.00 in 0.5 mi NNE 15.0 mph 20.7 mph N/A   Overcast
11:15 AM 21.2 °F 7.3 °F 19.4 °F 93% 29.97 in 0.5 mi NNE 16.1 mph 23.0 mph N/A   Overcast
11:35 AM 21.2 °F 6.4 °F 15.8 °F 80% 29.95 in 0.8 mi NNE 18.4 mph - N/A   Overcast
11:55 AM 21.2 °F 7.3 °F 10.4 °F 63% 29.93 in 0.8 mi North 16.1 mph - N/A   Overcast
12:15 PM 21.2 °F 8.3 °F 21.2 °F 100% 29.89 in 0.8 mi NNE 13.8 mph 23.0 mph N/A   Overcast
12:35 PM 21.2 °F 7.3 °F 5.0 °F 50% 29.85 in 1.0 mi NNE 16.1 mph 20.7 mph N/A   Overcast
12:55 PM 21.2 °F 7.3 °F 21.2 °F 100% 29.81 in 1.8 mi NNE 16.1 mph 24.2 mph N/A   Overcast
1:15 PM 21.2 °F 7.3 °F 6.8 °F 54% 29.79 in 1.8 mi NNE 16.1 mph - N/A   Overcast
1:35 PM 21.2 °F 7.3 °F 19.4 °F 93% 29.77 in 1.5 mi NNE 16.1 mph 26.5 mph N/A   Overcast
1:55 PM 21.2 °F 7.3 °F 14.0 °F 74% 29.77 in 1.2 mi NNE 16.1 mph 23.0 mph N/A   Overcast
2:15 PM 21.2 °F 6.4 °F 17.6 °F 86% 29.72 in 1.0 mi NNE 18.4 mph - N/A   Overcast
2:35 PM 21.2 °F 6.8 °F 12.2 °F 68% 29.72 in 1.0 mi NNE 17.3 mph 21.9 mph N/A   Overcast
2:55 PM 21.2 °F 7.3 °F 15.8 °F 80% 29.72 in 0.8 mi NNE 16.1 mph 21.9 mph N/A   Overcast
3:15 PM 21.2 °F 6.4 °F 15.8 °F 80% 29.70 in 0.5 mi NNE 18.4 mph - N/A   Overcast
3:35 PM 21.2 °F 6.0 °F 15.8 °F 80% 29.68 in 1.5 mi NNE 19.6 mph 24.2 mph N/A   Overcast
3:55 PM 21.2 °F 7.3 °F 17.6 °F 86% 29.77 in 1.5 mi NNW 16.1 mph 27.6 mph N/A   Overcast
4:15 PM 21.2 °F 7.3 °F 12.2 °F 68% 29.76 in 1.0 mi North 16.1 mph 23.0 mph N/A   Overcast
4:35 PM 21.2 °F 7.3 °F 17.6 °F 86% 29.75 in 0.2 mi North 16.1 mph - N/A   Overcast
4:55 PM 19.4 °F 4.5 °F 10.4 °F 68% 29.73 in 0.2 mi North 17.3 mph 23.0 mph N/A   Overcast
5:15 PM 19.4 °F 4.1 °F 19.4 °F 100% 29.73 in 0.8 mi North 18.4 mph 23.0 mph N/A   Overcast
5:35 PM 19.4 °F 4.5 °F 5.0 °F 54% 29.73 in 1.5 mi North 17.3 mph 25.3 mph N/A   Overcast
5:55 PM 19.4 °F 5.0 °F 19.4 °F 100% 29.71 in 2.0 mi North 16.1 mph 21.9 mph N/A   Overcast
6:15 PM 19.4 °F 4.5 °F 3.2 °F 49% 29.72 in 5.0 mi North 17.3 mph 20.7 mph N/A   Overcast
6:35 PM 19.4 °F 5.0 °F 19.4 °F 100% 29.72 in 10.0 mi North 16.1 mph - N/A   Overcast
6:55 PM 19.4 °F 6.0 °F 6.8 °F 58% 29.73 in 10.0 mi North 13.8 mph - N/A   Overcast
7:15 PM 19.4 °F 5.5 °F 17.6 °F 93% 29.73 in 10.0 mi North 15.0 mph 20.7 mph N/A   Overcast
7:35 PM 19.4 °F 5.5 °F 10.4 °F 68% 29.75 in 10.0 mi North 15.0 mph - N/A   Overcast
7:55 PM 19.4 °F 6.0 °F 12.2 °F 74% 29.76 in 5.0 mi North 13.8 mph 18.4 mph N/A   Overcast
8:15 PM 19.4 °F 6.6 °F 15.8 °F 86% 29.76 in 10.0 mi North 12.7 mph - N/A   Overcast
8:35 PM 19.4 °F 6.6 °F 12.2 °F 74% 29.77 in 4.0 mi North 12.7 mph - N/A   Overcast
8:55 PM 19.4 °F 6.6 °F 14.0 °F 80% 29.79 in 9.0 mi North 12.7 mph - N/A   Overcast
9:15 PM 19.4 °F 6.0 °F 10.4 °F 68% 29.79 in 5.0 mi North 13.8 mph - N/A   Overcast
9:35 PM 19.4 °F 6.6 °F 15.8 °F 86% 29.82 in 10.0 mi North 12.7 mph 16.1 mph N/A   Overcast
9:55 PM 19.4 °F 7.2 °F 8.6 °F 63% 29.83 in 10.0 mi North 11.5 mph - N/A   Mostly Cloudy
10:15 PM 19.4 °F 7.2 °F 19.4 °F 100% 29.84 in 10.0 mi North 11.5 mph - N/A   Scattered Clouds
10:35 PM 19.4 °F 7.9 °F 8.6 °F 63% 29.85 in 10.0 mi North 10.4 mph - N/A   Clear
10:55 PM 19.4 °F 7.2 °F 15.8 °F 86% 29.87 in 10.0 mi North 11.5 mph - N/A   Mostly Cloudy
11:15 PM 19.4 °F 7.9 °F 8.6 °F 63% 29.89 in 10.0 mi North 10.4 mph - N/A   Partly Cloudy
11:35 PM 17.6 °F 9.3 °F 17.6 °F 100% 29.91 in 9.0 mi North 5.8 mph - N/A   Clear
11:55 PM 15.8 °F 6.1 °F 6.8 °F 68% 29.92 in 10.0 mi North 6.9 mph - N/A   Clear